When you browse on this site, cookies collect data to enhance your experience and personalize the content and advertising you see.
Visit our Privacy Policy to learn more. By continuing to use the site, you agree to this use of cookies and data.
  • In France
  • List of Countries
  • For 7 days
  • Water Temperature
  • Satellite Maps
  • Weather Map
  • Weather Widgets
  • user-avatar
    Login

    Hourly Weather Acuitzio del Canje

    Today, 18 July, Thursday

    Time Temperature Precipitation Wind Pressure Humidity
    00:00 +15°C° 0.1 mm 1 mps 594 mmHg 93%
    01:00 +15°C° 0.1 mm 1 mps 593 mmHg 92%
    02:00 +15°C° 0.1 mm 1 mps 593 mmHg 90%
    03:00 +15°C° 0 mm 1 mps 593 mmHg 89%
    04:00 +15°C° 0 mm 1 mps 593 mmHg 89%
    05:00 +14°C° 0 mm 1 mps 593 mmHg 88%
    06:00 +16°C° 0 mm 1 mps 594 mmHg 85%
    07:00 +18°C° 0 mm 1 mps 594 mmHg 82%
    08:00 +19°C° 0 mm 1 mps 595 mmHg 79%
    09:00 +21°C° 0.1 mm 1 mps 596 mmHg 71%
    10:00 +23°C° 0.1 mm 1 mps 596 mmHg 64%
    11:00 +25°C° 0.1 mm 2 mps 596 mmHg 56%
    12:00 +24°C° 0.8 mm 2 mps 596 mmHg 62%
    13:00 +23°C° 0.8 mm 2 mps 595 mmHg 68%
    14:00 +21°C° 0.8 mm 2 mps 594 mmHg 74%
    15:00 +21°C° 1.1 mm 1 mps 593 mmHg 79%
    16:00 +20°C° 1.1 mm 1 mps 592 mmHg 85%
    17:00 +19°C° 1.1 mm 1 mps 592 mmHg 90%
    18:00 +18°C° 0.7 mm 1 mps 592 mmHg 91%
    19:00 +16°C° 0.7 mm 1 mps 592 mmHg 92%
    20:00 +15°C° 0.7 mm 1 mps 593 mmHg 94%
    21:00 +15°C° 0.2 mm 1 mps 593 mmHg 93%
    22:00 +15°C° 0.2 mm 1 mps 593 mmHg 92%
    23:00 +14°C° 0.2 mm 1 mps 593 mmHg 91%

    Tomorrow, 19 July, Friday

    Time Temperature Precipitation Wind Pressure Humidity
    00:00 +14°C° 0 mm 1 mps 593 mmHg 89%
    01:00 +14°C° 0 mm 1 mps 592 mmHg 88%
    02:00 +14°C° 0 mm 1 mps 592 mmHg 86%
    03:00 +14°C° 0 mm 1 mps 592 mmHg 86%
    04:00 +13°C° 0 mm 1 mps 591 mmHg 87%
    05:00 +12°C° 0 mm 0 mps 591 mmHg 87%
    06:00 +14°C° 0 mm 0 mps 593 mmHg 83%
    07:00 +16°C° 0 mm 0 mps 594 mmHg 78%
    08:00 +18°C° 0 mm 0 mps 595 mmHg 74%
    09:00 +21°C° 0.1 mm 1 mps 595 mmHg 69%
    10:00 +22°C° 0.1 mm 1 mps 595 mmHg 64%
    11:00 +24°C° 0.1 mm 2 mps 596 mmHg 59%
    12:00 +24°C° 0.4 mm 2 mps 595 mmHg 59%
    13:00 +23°C° 0.4 mm 2 mps 594 mmHg 59%
    14:00 +23°C° 0.4 mm 2 mps 594 mmHg 60%
    15:00 +21°C° 0.5 mm 2 mps 593 mmHg 68%
    16:00 +21°C° 0.5 mm 1 mps 593 mmHg 75%
    17:00 +20°C° 0.5 mm 1 mps 592 mmHg 83%
    18:00 +18°C° 0.3 mm 1 mps 592 mmHg 86%
    19:00 +16°C° 0.3 mm 1 mps 592 mmHg 89%
    20:00 +14°C° 0.3 mm 1 mps 592 mmHg 92%
    21:00 +14°C° 0.2 mm 1 mps 592 mmHg 91%
    22:00 +13°C° 0.2 mm 0 mps 592 mmHg 90%
    23:00 +13°C° 0.2 mm 0 mps 593 mmHg 89%

    Day after tomorrow, 20 July, Saturday

    Time Temperature Precipitation Wind Pressure Humidity
    00:00 +13°C° 0.2 mm 0 mps 592 mmHg 90%
    01:00 +13°C° 0.2 mm 0 mps 592 mmHg 91%
    02:00 +13°C° 0.2 mm 0 mps 592 mmHg 92%
    03:00 +13°C° 0.1 mm 0 mps 592 mmHg 92%
    04:00 +13°C° 0.1 mm 0 mps 592 mmHg 93%
    05:00 +13°C° 0.1 mm 0 mps 592 mmHg 93%
    06:00 +14°C° 0 mm 0 mps 592 mmHg 92%
    07:00 +14°C° 0 mm 0 mps 593 mmHg 91%
    08:00 +15°C° 0 mm 0 mps 594 mmHg 90%
    09:00 +18°C° 0.5 mm 1 mps 594 mmHg 87%
    10:00 +19°C° 0.5 mm 1 mps 594 mmHg 84%
    11:00 +21°C° 0.5 mm 1 mps 594 mmHg 82%
    12:00 +20°C° 1 mm 1 mps 594 mmHg 83%
    13:00 +20°C° 1 mm 1 mps 593 mmHg 84%
    14:00 +20°C° 1 mm 1 mps 592 mmHg 85%
    15:00 +19°C° 0.5 mm 1 mps 592 mmHg 87%
    16:00 +19°C° 0.5 mm 1 mps 591 mmHg 89%
    17:00 +18°C° 0.5 mm 1 mps 591 mmHg 91%
    18:00 +16°C° 0.1 mm 1 mps 591 mmHg 92%
    19:00 +15°C° 0.1 mm 1 mps 591 mmHg 94%
    20:00 +14°C° 0.1 mm 1 mps 592 mmHg 95%
    21:00 +14°C° 0.6 mm 1 mps 592 mmHg 95%
    22:00 +14°C° 0.6 mm 1 mps 592 mmHg 96%
    23:00 +14°C° 0.6 mm 1 mps 592 mmHg 96%

    21 July, Sunday

    Time Temperature Precipitation Wind Pressure Humidity
    00:00 +14°C° 0.6 mm 1 mps 592 mmHg 96%
    01:00 +14°C° 0.6 mm 1 mps 592 mmHg 95%
    02:00 +13°C° 0.6 mm 0 mps 592 mmHg 95%
    03:00 +13°C° 0 mm 0 mps 592 mmHg 94%
    04:00 +13°C° 0 mm 0 mps 592 mmHg 94%
    05:00 +13°C° 0 mm 0 mps 592 mmHg 93%
    06:00 +14°C° 0 mm 0 mps 593 mmHg 89%
    07:00 +16°C° 0 mm 0 mps 594 mmHg 84%
    08:00 +17°C° 0 mm 0 mps 595 mmHg 80%
    09:00 +21°C° 0.2 mm 1 mps 596 mmHg 75%
    10:00 +22°C° 0.2 mm 1 mps 596 mmHg 69%
    11:00 +23°C° 0.2 mm 1 mps 597 mmHg 64%
    12:00 +23°C° 1 mm 1 mps 596 mmHg 68%
    13:00 +22°C° 1 mm 1 mps 595 mmHg 73%
    14:00 +21°C° 1 mm 2 mps 594 mmHg 78%
    15:00 +21°C° 1.1 mm 1 mps 594 mmHg 82%
    16:00 +20°C° 1.1 mm 1 mps 593 mmHg 87%
    17:00 +20°C° 1.1 mm 1 mps 593 mmHg 91%
    18:00 +18°C° 0.5 mm 1 mps 593 mmHg 92%
    19:00 +15°C° 0.5 mm 0 mps 593 mmHg 92%
    20:00 +14°C° 0.5 mm 0 mps 593 mmHg 93%
    21:00 +15°C° 0.2 mm 1 mps 593 mmHg 92%
    22:00 +14°C° 0.2 mm 1 mps 593 mmHg 92%
    23:00 +14°C° 0.2 mm 1 mps 593 mmHg 92%

    22 July, Monday

    Time Temperature Precipitation Wind Pressure Humidity
    00:00 +14°C° 0 mm 1 mps 593 mmHg 93%
    01:00 +14°C° 0 mm 1 mps 593 mmHg 93%
    02:00 +14°C° 0 mm 1 mps 592 mmHg 93%
    03:00 +14°C° 0 mm 1 mps 592 mmHg 93%
    04:00 +13°C° 0 mm 1 mps 592 mmHg 92%
    05:00 +13°C° 0 mm 1 mps 592 mmHg 91%
    06:00 +15°C° 0 mm 1 mps 593 mmHg 87%
    07:00 +16°C° 0 mm 0 mps 594 mmHg 82%
    08:00 +18°C° 0 mm 0 mps 596 mmHg 77%
    09:00 +19°C° 0.4 mm 0 mps 596 mmHg 74%
    10:00 +23°C° 0.4 mm 1 mps 596 mmHg 70%
    11:00 +24°C° 0.4 mm 1 mps 596 mmHg 67%
    12:00 +23°C° 1.5 mm 1 mps 595 mmHg 72%
    13:00 +22°C° 1.5 mm 1 mps 594 mmHg 77%
    14:00 +22°C° 1.5 mm 1 mps 594 mmHg 82%
    15:00 +21°C° 1.3 mm 1 mps 593 mmHg 85%
    16:00 +19°C° 1.3 mm 1 mps 592 mmHg 89%
    17:00 +18°C° 1.3 mm 1 mps 592 mmHg 92%
    18:00 +18°C° 1 mm 1 mps 592 mmHg 92%
    19:00 +16°C° 1 mm 1 mps 592 mmHg 92%
    20:00 +15°C° 1 mm 1 mps 593 mmHg 92%
    21:00 +15°C° 3.6 mm 1 mps 593 mmHg 93%
    22:00 +15°C° 3.6 mm 1 mps 593 mmHg 94%
    23:00 +14°C° 3.6 mm 1 mps 593 mmHg 95%

    23 July, Tuesday

    Time Temperature Precipitation Wind Pressure Humidity
    00:00 +14°C° 0.3 mm 1 mps 593 mmHg 94%
    01:00 +14°C° 0.3 mm 1 mps 593 mmHg 94%
    02:00 +13°C° 0.3 mm 0 mps 592 mmHg 94%
    03:00 +13°C° 0.1 mm 0 mps 593 mmHg 94%
    04:00 +13°C° 0.1 mm 0 mps 593 mmHg 94%
    05:00 +13°C° 0.1 mm 0 mps 593 mmHg 94%
    06:00 +13°C° 0.1 mm 0 mps 593 mmHg 94%
    07:00 +14°C° 0.1 mm 0 mps 594 mmHg 94%
    08:00 +15°C° 0.1 mm 0 mps 594 mmHg 94%
    09:00 +15°C° 0.5 mm 0 mps 594 mmHg 93%
    10:00 +15°C° 0.5 mm 0 mps 594 mmHg 93%
    11:00 +15°C° 0.5 mm 0 mps 594 mmHg 92%
    12:00 +17°C° 0.7 mm 0 mps 594 mmHg 88%
    13:00 +20°C° 0.7 mm 1 mps 594 mmHg 83%
    14:00 +22°C° 0.7 mm 1 mps 594 mmHg 79%
    15:00 +21°C° 1.1 mm 1 mps 593 mmHg 84%
    16:00 +20°C° 1.1 mm 1 mps 593 mmHg 88%
    17:00 +19°C° 1.1 mm 1 mps 592 mmHg 93%
    18:00 +18°C° 0.6 mm 1 mps 592 mmHg 94%
    19:00 +16°C° 0.6 mm 1 mps 592 mmHg 95%
    20:00 +15°C° 0.6 mm 1 mps 593 mmHg 96%
    21:00 +15°C° 0.5 mm 1 mps 593 mmHg 96%
    22:00 +15°C° 0.5 mm 1 mps 593 mmHg 95%
    23:00 +15°C° 0.5 mm 1 mps 593 mmHg 95%
    Show more